Location: Asheville, NC
(35.6000°N, 82.5500°W)
Time: 19:28:52
(UTC-04:00)

ELECTRON R/B - Visible Passes

Search period start: 27 May 2018 00:00
Search period end: 06 June 2018 00:00
Orbit: 284 x 478 km, 82.9° (Epoch: 27 May)

Date Brightness Start Highest point End Pass type
(mag) Time Alt. Az. Time Alt. Az. Time Alt. Az.
27 May 7.2 22:14:39 10° NW 22:16:21 17° W 22:18:06 10° SW visible
28 May 4.8 21:17:10 10° N 21:19:34 44° E 21:22:05 10° SSE visible
29 May 7.0 21:53:21 10° NW 21:55:20 21° W 21:57:24 10° SW visible
31 May 6.7 21:31:46 10° NNW 21:34:00 26° W 21:36:20 10° SSW visible
02 Jun 6.3 21:09:54 10° NNW 21:12:20 35° W 21:14:53 10° SSW visible
